Weather History for Barrow, AK

Change the Weather History Date:

Wednesday, July 10, 2013

  Actual Average Record
Temperature  
Mean Temperature 37 °F 41 °F  
Max Temperature 43 °F 47 °F 75 °F (1921)
Min Temperature 30 °F 35 °F 24 °F (1922)
Degree Days  
Heating Degree Days 28 24  
Month to date heating degree days 216 243  
Since 1 June heating degree days 994 1123  
Since 1 July heating degree days 216 243  
Cooling Degree Days 0    
Month to date cooling degree days 0  
Year to date cooling degree days 0  
Since 1 June cooling degree days 0  
Moisture  
Dew Point 30 °F    
Average Humidity 0    
Maximum Humidity 0    
Minimum Humidity 0    
Precipitation  
Precipitation 0.00 in 0.03 in 0.51 in (1975)
Month to date precipitation 0.53 0.27  
Year to date precipitation 2.52 1.29  
Snow  
Snow 0.00 in 0.00 in T in (1996)
Month to date snowfall 0.0 0.0  
Since 1 June snowfall 0.3 0.7  
Since 1 July snowfall 0.0 0.0  
Snow Depth 0.00 in    
Sea Level Pressure  
Sea Level Pressure 30.31 in    
Wind  
Wind Speed 19 mph (ENE)    
Max Wind Speed 22 mph    
Max Gust Speed 25 mph    
Visibility 7 miles    
Events      
T = Trace of Precipitation, MM = Missing Value Source: NWS Daily Summary

Daily Weather History Graph

Daily Weather History Graph

Search for Another Location

Airport:

Trip Planner

Search our weather history database for the weather conditions in past years. The results will help you decide how hot, cold, wet, or windy it might be!

Date:

Astronomy

Dec. 31, 1969 Rise Set
Actual Time Sun does not rise Sun does not rise
Civil Twilight Sun does not rise Sun does not rise
Nautical Twilight Sun does not rise Sun does not rise
Astronomical Twilight Sun does not rise Sun does not rise
Moon 7:46 AM AKDT (7/10) 12:45 AM AKDT (7/10)
Length of Visible Light 24h 00m
Length of Day
24h 00m
Waxing Crescent, 6% of the Moon is Illuminated
Jul 10
Waxing Crescent
Jul 15
First Quarter
Jul 22
Full
Jul 29
Last Quarter
Aug 6
New

Hourly Weather History & Observations

Time (AKDT) Temp. Windchill Dew Point Humidity Pressure Visibility Wind Dir Wind Speed Gust Speed Precip Events Conditions
12:53 AM 35.1 °F 24.8 °F 30.9 °F 85% 30.28 in 10.0 mi ENE 17.3 mph - N/A   Overcast
1:53 AM 35.1 °F 23.8 °F 30.0 °F 82% 30.29 in 10.0 mi ENE 20.7 mph - N/A   Mostly Cloudy
2:34 AM 33.8 °F 23.9 °F 30.2 °F 87% 30.29 in 10.0 mi ENE 15.0 mph - N/A   Overcast
2:53 AM 34.0 °F 23.0 °F 30.0 °F 85% 30.30 in 10.0 mi ENE 18.4 mph - N/A   Overcast
3:53 AM 33.1 °F 22.6 °F 28.9 °F 85% 30.30 in 4.0 mi NE 16.1 mph - N/A   Overcast
4:00 AM 32.0 °F 20.8 °F 28.4 °F 87% 30.30 in 1.8 mi NE 17.3 mph - N/A   Overcast
4:24 AM 32.0 °F 20.5 °F 28.4 °F 87% 30.30 in 3.0 mi NE 18.4 mph - N/A   Overcast
4:49 AM 30.2 °F 18.9 °F 28.4 °F 93% 30.30 in 1.8 mi ENE 16.1 mph - N/A   Overcast
4:53 AM 32.0 °F 21.2 °F 28.0 °F 85% 30.30 in 1.8 mi ENE 16.1 mph - N/A   Overcast
4:56 AM 32.0 °F 20.1 °F 28.4 °F 87% 30.30 in 3.0 mi ENE 19.6 mph - N/A   Overcast
5:17 AM 32.0 °F 20.5 °F 28.4 °F 87% 30.30 in 1.5 mi ENE 18.4 mph - N/A   Mostly Cloudy
5:25 AM 30.2 °F 18.5 °F 28.4 °F 93% 30.30 in 3.0 mi NE 17.3 mph - N/A   Mostly Cloudy
5:53 AM 32.0 °F 20.8 °F 28.0 °F 85% 30.30 in 3.0 mi ENE 17.3 mph - N/A   Mostly Cloudy
5:58 AM 32.0 °F 20.8 °F 28.4 °F 87% 30.30 in 1.8 mi NE 17.3 mph - N/A   Overcast
6:09 AM 30.2 °F 18.9 °F 28.4 °F 93% 30.30 in 0.8 mi NE 16.1 mph - N/A   Overcast
6:23 AM 30.2 °F 17.8 °F 28.4 °F 93% 30.30 in 1.2 mi ENE 19.6 mph - N/A   Overcast
6:53 AM 30.9 °F 19.8 °F 28.0 °F 89% 30.30 in 1.0 mi NE 16.1 mph - N/A   Overcast
7:00 AM 32.0 °F 21.2 °F 28.4 °F 87% 30.30 in 3.0 mi ENE 16.1 mph - N/A   Overcast
7:53 AM 32.0 °F 19.8 °F 28.0 °F 85% 30.30 in 6.0 mi NE 20.7 mph - N/A   Mostly Cloudy
8:53 AM 35.1 °F 24.8 °F 28.9 °F 78% 30.30 in 10.0 mi ENE 17.3 mph - N/A   Mostly Cloudy
9:53 AM 35.1 °F 23.8 °F 30.0 °F 82% 30.30 in 10.0 mi ENE 20.7 mph - N/A   Mostly Cloudy
10:00 AM 35.6 °F 24.8 °F 30.2 °F 81% 30.30 in 10.0 mi ENE 19.6 mph 25.3 mph N/A   Mostly Cloudy
10:53 AM 37.0 °F 26.4 °F 30.9 °F 79% 30.31 in 10.0 mi ENE 20.7 mph - N/A   Mostly Cloudy
11:25 AM 37.4 °F 27.5 °F 30.2 °F 75% 30.31 in 10.0 mi ENE 18.4 mph - N/A   Scattered Clouds
11:53 AM 37.9 °F 27.9 °F 30.9 °F 76% 30.31 in 10.0 mi ENE 19.6 mph - N/A   Scattered Clouds
12:53 PM 39.9 °F 31.1 °F 32.0 °F 73% 30.32 in 10.0 mi ENE 17.3 mph - N/A   Scattered Clouds
1:53 PM 41.0 °F 31.4 °F 32.0 °F 70% 30.33 in 10.0 mi ENE 21.9 mph - N/A   Scattered Clouds
2:53 PM 41.0 °F 31.4 °F 32.0 °F 70% 30.32 in 10.0 mi ENE 21.9 mph 25.3 mph N/A   Scattered Clouds
3:53 PM 42.1 °F 33.3 °F 33.1 °F 70% 30.33 in 10.0 mi ENE 19.6 mph - N/A   Scattered Clouds
4:53 PM 41.0 °F 31.6 °F 32.0 °F 70% 30.33 in 10.0 mi ENE 20.7 mph - N/A   Scattered Clouds
5:53 PM 39.9 °F 30.2 °F 32.0 °F 73% 30.33 in 10.0 mi ENE 20.7 mph - N/A   Scattered Clouds
6:53 PM 39.9 °F 30.8 °F 32.0 °F 73% 30.34 in 10.0 mi ENE 18.4 mph - N/A   Mostly Cloudy
7:53 PM 39.0 °F 29.6 °F 32.0 °F 76% 30.33 in 10.0 mi ENE 18.4 mph - N/A   Mostly Cloudy
8:53 PM 37.9 °F 27.9 °F 30.9 °F 76% 30.34 in 10.0 mi ENE 19.6 mph - N/A   Mostly Cloudy
9:53 PM 37.0 °F 26.4 °F 30.9 °F 79% 30.34 in 10.0 mi ENE 20.7 mph - N/A   Mostly Cloudy
10:41 PM 35.6 °F 25.5 °F 30.2 °F 81% 30.34 in 10.0 mi ENE 17.3 mph - N/A   Mostly Cloudy
10:53 PM 35.1 °F 24.1 °F 30.9 °F 85% 30.34 in 10.0 mi ENE 19.6 mph - N/A   Mostly Cloudy
11:53 PM 35.1 °F 24.8 °F 30.9 °F 85% 30.35 in 10.0 mi ENE 17.3 mph - N/A   Mostly Cloudy